Watertown, NY

11:09 PM EST on December 06, 2019 (GMT -0500)
Watertown International

Weather History for KART - October, 2019

Change the Weather History Date:

Tuesday, October 22, 2019

  Actual Average Record
Temperature  
Mean Temperature 58 °F 46 °F  
Max Temperature 62 °F 56 °F 84 °F (1979)
Min Temperature 54 °F 37 °F 23 °F (1982)
Degree Days  
Heating Degree Days 7 19  
Month to date heating degree days 327 341  
Since 1 July heating degree days 529 615  
Cooling Degree Days 0 0  
Month to date cooling degree days 7 0  
Year to date cooling degree days 348 359  
Growing Degree Days 8 (Base 50)    
Moisture  
Dew Point 50 °F    
Average Humidity 72    
Maximum Humidity 93    
Minimum Humidity 51    
Precipitation  
Precipitation 0.83 in 0.11 in 1.35 in (1988)
Month to date precipitation 4.56 2.64  
Year to date precipitation 36.00 28.16  
Sea Level Pressure  
Sea Level Pressure 29.81 in    
Wind  
Wind Speed 9 mph (South)    
Max Wind Speed 21 mph    
Max Gust Speed 30 mph    
Visibility 6 miles    
Events Fog , Rain    
T = Trace of Precipitation, MM = Missing Value Source: NWS Daily Summary

Daily Weather History Graph

Daily Weather History Graph

Search for Another Location

Airport or City:

Astronomy

Oct. 22, 2019 Rise Set
Actual Time 7:27 AM EDT 6:09 PM EDT
Civil Twilight 6:57 AM EDT 6:38 PM EDT
Nautical Twilight 6:24 AM EDT 7:12 PM EDT
Astronomical Twilight 5:50 AM EDT 7:45 PM EDT
Moon 12:17 AM EDT (10/22) 3:32 PM EDT (10/22)
Length of Visible Light 11h 40m
Length of Day
10h 42m
Last Quarter, 37% of the Moon is Illuminated
Oct 22
Last Quarter
Oct 27
New
Nov 4
First Quarter
Nov 12
Full
Nov 19
Last Quarter

Hourly Weather History & Observations

Time (EDT) Temp. Dew Point Humidity Pressure Visibility Wind Dir Wind Speed Gust Speed Precip Events Conditions
12:56 AM 55.0 °F 44.1 °F 67% 29.96 in 10.0 mi Calm Calm - N/A   Clear
2:56 AM 61.0 °F 42.1 °F 50% 29.91 in 10.0 mi SSE 10.4 mph 19.6 mph N/A   Clear
3:56 AM 61.0 °F 43.0 °F 52% 29.89 in 10.0 mi SSE 8.1 mph - N/A   Clear
4:56 AM 60.1 °F 44.1 °F 55% 29.88 in 10.0 mi SSE 13.8 mph 24.2 mph N/A   Clear
5:56 AM 57.9 °F 44.1 °F 60% 29.88 in 10.0 mi SSE 8.1 mph 17.3 mph N/A   Clear
6:56 AM 59.0 °F 45.0 °F 60% 29.87 in 10.0 mi SSE 11.5 mph 19.6 mph N/A   Clear
7:56 AM 59.0 °F 44.1 °F 58% 29.88 in 10.0 mi Variable 5.8 mph 17.3 mph N/A   Mostly Cloudy
8:56 AM 59.0 °F 44.1 °F 58% 29.87 in 10.0 mi SSE 9.2 mph - N/A   Overcast
9:56 AM 59.0 °F 44.1 °F 58% 29.85 in 10.0 mi SSE 13.8 mph 26.5 mph N/A   Overcast
10:56 AM 60.1 °F 45.0 °F 57% 29.82 in 10.0 mi SSE 15.0 mph 24.2 mph N/A   Overcast
11:56 AM 60.1 °F 46.0 °F 60% 29.83 in 10.0 mi SSE 13.8 mph 27.6 mph 0.00 in   Mostly Cloudy
12:56 PM 61.0 °F 46.9 °F 60% 29.80 in 10.0 mi SSE 12.7 mph 21.9 mph 0.00 in   Overcast
1:56 PM 60.1 °F 50.0 °F 69% 29.78 in 10.0 mi SSE 11.5 mph 21.9 mph 0.00 in Rain Light Rain
2:12 PM 57.9 °F 51.1 °F 78% 29.79 in 2.5 mi SW 5.8 mph - 0.01 in Rain Rain
2:21 PM 57.0 °F 51.1 °F 81% 29.79 in 1.0 mi WSW 8.1 mph - 0.06 in Rain Heavy Rain
2:28 PM 55.9 °F 52.0 °F 87% 29.79 in 0.5 mi West 8.1 mph - 0.13 in Fog , Rain Heavy Rain
2:45 PM 55.0 °F 53.1 °F 93% 29.79 in 1.2 mi WSW 4.6 mph - 0.19 in Rain Rain
2:56 PM 55.0 °F 53.1 °F 93% 29.78 in 1.0 mi WSW 3.5 mph - 0.22 in Rain Rain
3:16 PM 55.0 °F 54.0 °F 96% 29.77 in 2.0 mi Calm Calm - 0.04 in Rain Light Rain
3:34 PM 55.0 °F 53.1 °F 93% 29.77 in 1.5 mi Calm Calm - 0.09 in Rain Rain
3:56 PM 55.0 °F 53.1 °F 93% 29.78 in 1.0 mi SSW 3.5 mph - 0.14 in Rain Rain
4:18 PM 55.0 °F 54.0 °F 96% 29.79 in 1.5 mi Calm Calm - 0.06 in Rain Rain
4:26 PM 55.0 °F 54.0 °F 96% 29.79 in 1.5 mi Calm Calm - 0.08 in Rain Rain
4:44 PM 55.0 °F 53.1 °F 93% 29.79 in 2.0 mi SE 3.5 mph - 0.12 in Rain Rain
4:56 PM 55.0 °F 53.1 °F 93% 29.78 in 3.0 mi SE 3.5 mph - 0.15 in Rain Rain
5:21 PM 55.0 °F 53.1 °F 93% 29.80 in 2.0 mi SSE 6.9 mph - 0.06 in Rain Rain
5:46 PM 55.0 °F 52.0 °F 89% 29.80 in 4.0 mi South 9.2 mph 20.7 mph 0.10 in Rain Light Rain
5:56 PM 55.0 °F 52.0 °F 89% 29.79 in 3.0 mi South 9.2 mph - 0.13 in Rain Rain
6:56 PM 55.0 °F 52.0 °F 89% 29.77 in 4.0 mi SSE 10.4 mph - 0.10 in Rain Light Rain
7:56 PM 55.9 °F 53.1 °F 90% 29.75 in 9.0 mi SSE 10.4 mph - 0.07 in Rain Light Rain
8:56 PM 55.9 °F 53.1 °F 90% 29.77 in 6.0 mi SSE 8.1 mph - 0.01 in Rain Light Rain
9:56 PM 55.9 °F 53.1 °F 90% 29.76 in 10.0 mi South 9.2 mph - 0.01 in Rain Light Rain
10:56 PM 55.0 °F 51.1 °F 86% 29.77 in 10.0 mi SSE 8.1 mph - 0.00 in   Mostly Cloudy
11:51 PM 55.4 °F 51.8 °F 88% 29.78 in 10.0 mi SSW 10.4 mph 19.6 mph N/A   Overcast
11:56 PM 55.9 °F 51.1 °F 84% 29.78 in 10.0 mi SSW 10.4 mph 19.6 mph N/A   Overcast